This is the latest recevied weather packets stored in our database for station/object SP6PWT-13. If no packets are shown the sender has not sent any weather packets the latest 1 day(s).
| Time | Temp. | Humidity | Pressure | Rain* | Wind** | Luminosity | Snow |
|---|---|---|---|---|---|---|---|
| 1778065027 | 20° C | 53% | 989.8 hPa | 0 mm | - | 390 W/m² | - |
| 1778064726 | 20° C | 53% | 989.9 hPa | 0 mm | - | 223 W/m² | - |
| 1778063814 | 20° C | 54% | 989.9 hPa | 0 mm | - | 317 W/m² | - |
| 1778063513 | 20° C | 53% | 989.9 hPa | 0 mm | - | 466 W/m² | - |
| 1778063212 | 20° C | 53% | 989.9 hPa | 0 mm | - | 164 W/m² | - |
| 1778062601 | 20° C | 53% | 989.9 hPa | 0 mm | - | 757 W/m² | - |
| 1778062300 | 20° C | 54% | 990.1 hPa | 0 mm | - | 752 W/m² | - |
| 1778062000 | 20° C | 53% | 990.1 hPa | 0 mm | - | 708 W/m² | - |
| 1778061087 | 20° C | 54% | 989.8 hPa | 0 mm | - | 558 W/m² | - |
| 1778060787 | 20° C | 55% | 989.8 hPa | 0 mm | - | 695 W/m² | - |
| 1778060476 | 20° C | 56% | 989.6 hPa | 0 mm | - | 746 W/m² | - |
| 1778060176 | 19.44° C | 58% | 989.7 hPa | 0 mm | - | 764 W/m² | - |
| 1778059263 | 18.89° C | 60% | 989.7 hPa | 0 mm | - | 301 W/m² | - |
| 1778058962 | 18.89° C | 60% | 989.8 hPa | 0 mm | - | 282 W/m² | - |
| 1778058040 | 18.89° C | 59% | 989.6 hPa | 0 mm | - | 272 W/m² | - |
| 1778057739 | 18.89° C | 61% | 989.7 hPa | 0 mm | - | 254 W/m² | - |
| 1778056817 | 18.33° C | 63% | 989.7 hPa | 0 mm | - | 244 W/m² | - |
| 1778056516 | 18.33° C | 64% | 989.7 hPa | 0 mm | - | 210 W/m² | - |
| 1778056215 | 18.89° C | 65% | 989.7 hPa | 0 mm | - | 219 W/m² | - |
| 1778055011 | 18.33° C | 66% | 989.5 hPa | 0 mm | - | 335 W/m² | - |
| 1778054110 | 18.33° C | 67% | 989.6 hPa | 0 mm | - | 107 W/m² | - |
| 1778053810 | 17.78° C | 68% | 989.4 hPa | 0 mm | - | 217 W/m² | - |
| 1778053510 | 17.78° C | 68% | 989.3 hPa | 0 mm | - | 252 W/m² | - |
| 1778053209 | 17.78° C | 68% | 989.6 hPa | 0 mm | - | 233 W/m² | - |
| 1778052306 | 17.22° C | 70% | 989.4 hPa | 0 mm | - | 126 W/m² | - |
* Rain latest hour (hover to see other rain measurements)
** Current wind speed in m/s (hover to see current wind gust speed)